DW7898 Weather Reports


time (UTC)temp
C
wind
direction
speed
KPH
gust
KPH
rain 1hr
cm
rain 24hr
cm
rain mn
cm
humidity
%
barometer
mb
20260503192357 16 46 3.2 6.4 0.03 0.03 0.03 78 1015.5
20260503191358 16 45 1.6 8.0 0.03 0.03 0.03 77 1015.3
20260503190340 16 49 6.4 8.0 0.03 0.03 0.03 76 1015.2
20260503185342 16 85 3.2 8.0 0.03 0.03 0.03 76 1015.5
20260503184347 16 82 1.6 6.4 0.03 0.03 0.03 76 1015.6
20260503183352 16 81 1.6 6.4 0.03 0.03 0.03 75 1015.5
20260503182344 17 77 1.6 9.7 0.00 0.00 0.00 73 1015.4
20260503181350 17 58 3.2 6.4 0.00 0.00 0.00 72 1015.4
20260503180355 17 58 4.8 9.7 0.00 0.00 0.00 71 1015.3
20260503175354 17 111 4.8 9.7 0.00 0.00 0.00 70 1015.3
20260503174338 17 63 4.8 14.5 0.00 0.00 0.00 70 1015.2
20260503173341 17 79 4.8 9.7 0.00 0.00 0.00 70 1015.0
20260503172358 17 62 4.8 11.3 0.00 0.00 0.00 69 1015.0
20260503171339 17 55 6.4 11.3 0.00 0.00 0.00 68 1015.0
20260503170342 17 84 1.6 11.3 0.00 0.00 0.00 67 1015.1
20260503150351 18 141 6.4 14.5 0.00 0.00 0.00 66 1015.2
20260503131356 18 203 3.2 16.1 0.00 0.00 0.00 65 1016.8
20260503130339 18 113 9.7 17.7 0.00 0.00 0.00 63 1017.0
20260503110339 18 158 4.8 11.3 0.00 0.00 0.00 64 1017.9
20260503090346 18 109 4.8 11.3 0.00 0.00 0.00 64 1018.1
20260503081353 18 195 1.6 9.7 0.00 0.00 0.00 67 1017.8
20260503080337 18 58 3.2 9.7 0.00 0.00 0.00 68 1017.8
20260503072355 17 164 1.6 6.4 0.00 0.00 0.00 72 1017.9
20260503071341 17 122 3.2 12.9 0.00 0.00 0.00 73 1018.1
20260503070345 17 49 1.6 9.7 0.00 0.00 0.00 75 1017.9
20260503060341 16 42 4.8 8.0 0.00 0.00 0.00 79 1017.9
20260503054342 16 44 3.2 4.8 0.00 0.00 0.00 79 1018.0
20260503053346 16 45 1.6 4.8 0.00 0.00 0.00 79 1018.1
20260503052345 16 44 1.6 6.4 0.00 0.00 0.00 80 1018.0
20260503051352 16 45 3.2 6.4 0.00 0.00 0.00 79 1018.0
20260503050356 16 44 3.2 4.8 0.00 0.00 0.00 79 1017.9
20260503045351 16 44 1.6 3.2 0.00 0.00 0.00 79 1017.9
20260503044358 16 44 1.6 4.8 0.00 0.00 0.00 79 1018.0
20260503043341 16 44 1.6 6.4 0.00 0.00 0.00 79 1017.9
20260503042339 16 44 1.6 4.8 0.00 0.00 0.00 79 1017.9
20260503041339 16 44 1.6 6.4 0.00 0.00 0.00 79 1018.0
20260503040343 16 43 4.8 8.0 0.00 0.00 0.00 79 1017.9
20260503035359 16 65 3.2 8.0 0.00 0.00 0.00 79 1018.1
20260503034357 16 87 4.8 8.0 0.00 0.00 0.00 80 1018.1
20260503033358 16 43 3.2 6.4 0.00 0.00 0.00 79 1018.0
20260503032353 16 41 1.6 4.8 0.00 0.00 0.00 79 1018.0
20260503031355 16 41 0.0 3.2 0.00 0.00 0.00 79 1018.3
20260503030342 16 41 0.0 1.6 0.00 0.00 0.00 79 1018.5
20260503025344 16 41 0.0 3.2 0.00 0.00 0.00 79 1018.6
20260503024341 16 41 0.0 4.8 0.00 0.00 0.00 78 1018.6
20260503023342 16 41 1.6 4.8 0.00 0.00 0.00 78 1018.6
20260503022341 16 41 1.6 4.8 0.00 0.00 0.00 78 1018.8
20260503021347 16 41 3.2 4.8 0.00 0.00 0.00 78 1018.7
20260503020338 16 42 1.6 8.0 0.00 0.00 0.00 78 1018.7
20260503015359 17 41 3.2 6.4 0.00 0.00 0.00 77 1018.7
20260503014358 17 41 1.6 4.8 0.00 0.00 0.00 77 1018.8
20260503013342 17 41 1.6 4.8 0.00 0.00 0.00 77 1018.7
20260503012344 17 40 1.6 4.8 0.00 0.00 0.00 76 1018.9
20260503011346 17 40 1.6 4.8 0.00 0.00 0.00 76 1019.1
20260503010352 17 40 0.0 3.2 0.00 0.00 0.00 76 1019.1
20260503005356 17 40 1.6 3.2 0.00 0.00 0.00 76 1019.3
20260503004357 17 40 1.6 4.8 0.00 0.00 0.00 76 1019.4
20260503003339 17 40 0.0 3.2 0.00 0.00 0.00 76 1019.6
20260503002340 17 40 0.0 3.2 0.00 0.00 0.00 76 1019.8
20260503001338 17 40 1.6 3.2 0.00 0.00 0.00 76 1019.8
20260503000400 17 40 0.0 4.8 0.00 0.00 0.00 76 1019.9
20260502235339 17 40 1.6 6.4 0.00 0.00 0.00 76 1020.1
20260502234342 17 40 3.2 4.8 0.00 0.00 0.00 76 1020.1
20260502233348 17 39 1.6 3.2 0.00 0.00 0.00 76 1020.2
20260502232339 17 39 0.0 3.2 0.00 0.00 0.00 76 1020.3
20260502231338 17 39 0.0 4.8 0.00 0.00 0.00 76 1020.2
20260502230345 17 37 3.2 8.0 0.00 0.00 0.00 77 1020.3
20260502225346 17 13 3.2 8.0 0.00 0.00 0.00 76 1020.3
20260502224356 17 48 3.2 6.4 0.00 0.00 0.00 76 1020.3
20260502223338 17 51 3.2 6.4 0.00 0.00 0.00 76 1020.4
20260502222356 17 58 3.2 6.4 0.00 0.00 0.00 76 1020.3
20260502221339 17 45 4.8 6.4 0.00 0.00 0.00 76 1020.6
20260502220343 17 42 3.2 9.7 0.00 0.00 0.00 76 1020.7
20260502215359 17 16 6.4 9.7 0.00 0.00 0.00 76 1020.7
20260502214356 17 40 6.4 9.7 0.00 0.00 0.00 76 1020.8
20260502213358 17 39 3.2 9.7 0.00 0.00 0.00 76 1021.0
20260502212357 17 53 3.2 8.0 0.00 0.00 0.00 75 1020.9
20260502211337 17 50 1.6 6.4 0.00 0.00 0.00 75 1021.1
20260502210339 17 52 4.8 8.0 0.00 0.00 0.00 75 1021.1
20260502205357 17 48 3.2 6.4 0.00 0.00 0.00 75 1021.0
20260502204343 17 48 3.2 6.4 0.00 0.00 0.00 75 1021.1
20260502203349 17 47 3.2 6.4 0.00 0.00 0.00 74 1021.0
20260502202352 17 52 3.2 6.4 0.00 0.00 0.00 74 1021.1
20260502201354 17 50 3.2 8.0 0.00 0.00 0.00 74 1020.7
20260502200354 17 58 1.6 8.0 0.00 0.00 0.00 73 1020.7
20260502195356 17 42 4.8 8.0 0.00 0.00 0.00 73 1020.6
20260502194339 17 54 3.2 8.0 0.00 0.00 0.00 73 1020.6
20260502193347 17 42 3.2 8.0 0.00 0.00 0.00 72 1020.6